TimeEST,TemperatureF,Dew PointF,Humidity,Sea Level PressureIn,VisibilityMPH,Wind Direction,Wind SpeedMPH,Gust SpeedMPH,PrecipitationIn,Events,Conditions,WindDirDegrees,DateUTC
12:10 AM,32.0,28.4,87,30.23,10.0,North,13.8,-,0.00,,Mostly Cloudy,10,2012-11-27 05:10:00
12:30 AM,30.2,28.4,93,30.23,10.0,North,15.0,-,0.00,,Partly Cloudy,360,2012-11-27 05:30:00
12:50 AM,30.2,28.4,93,30.23,10.0,North,11.5,-,0.00,,Mostly Cloudy,10,2012-11-27 05:50:00
1:10 AM,30.2,28.4,93,30.22,10.0,North,9.2,-,0.00,,Partly Cloudy,360,2012-11-27 06:10:00
1:30 AM,30.2,28.4,93,30.22,10.0,North,9.2,-,0.00,,Clear,10,2012-11-27 06:30:00
1:50 AM,30.2,28.4,93,30.22,10.0,North,10.4,-,0.00,,Clear,360,2012-11-27 06:50:00
2:10 AM,30.2,28.4,93,30.22,10.0,North,9.2,-,0.00,,Partly Cloudy,10,2012-11-27 07:10:00
2:30 AM,30.2,26.6,86,30.23,10.0,North,6.9,-,0.00,,Mostly Cloudy,10,2012-11-27 07:30:00
2:50 AM,30.2,26.6,86,30.23,10.0,North,5.8,-,0.00,,Scattered Clouds,10,2012-11-27 07:50:00
3:10 AM,30.2,26.6,86,30.23,10.0,North,4.6,-,0.00,,Clear,10,2012-11-27 08:10:00
3:30 AM,30.2,26.6,86,30.23,10.0,North,4.6,-,0.00,,Partly Cloudy,360,2012-11-27 08:30:00
3:50 AM,30.2,28.4,93,30.23,10.0,North,5.8,-,0.00,,Partly Cloudy,360,2012-11-27 08:50:00
4:10 AM,30.2,28.4,93,30.22,10.0,North,4.6,-,0.00,,Partly Cloudy,10,2012-11-27 09:10:00
4:30 AM,30.2,26.6,86,30.22,10.0,North,5.8,-,0.00,,Mostly Cloudy,10,2012-11-27 09:30:00
4:50 AM,28.4,26.6,93,30.23,10.0,North,6.9,-,0.00,,Scattered Clouds,350,2012-11-27 09:50:00
5:10 AM,28.4,26.6,93,30.23,10.0,North,3.5,-,0.00,,Scattered Clouds,360,2012-11-27 10:10:00
5:30 AM,28.4,26.6,93,30.24,10.0,North,8.1,-,0.00,,Mostly Cloudy,350,2012-11-27 10:30:00
5:50 AM,28.4,26.6,93,30.24,10.0,North,8.1,-,0.00,,Overcast,360,2012-11-27 10:50:00
6:10 AM,28.4,26.6,93,30.25,10.0,North,5.8,-,0.00,,Overcast,350,2012-11-27 11:10:00
6:30 AM,28.4,26.6,93,30.25,10.0,North,4.6,-,0.00,,Overcast,360,2012-11-27 11:30:00
7:10 AM,24.8,23.0,93,30.27,8.0,NNW,5.8,-,0.00,,Scattered Clouds,340,2012-11-27 12:10:00
7:30 AM,24.8,24.8,100,30.28,7.0,North,4.6,-,0.00,,Mostly Cloudy,360,2012-11-27 12:30:00
7:50 AM,26.6,26.6,100,30.28,6.0,NNE,4.6,-,0.00,,Overcast,20,2012-11-27 12:50:00
8:10 AM,26.6,26.6,100,30.28,6.0,North,4.6,-,0.00,,Overcast,10,2012-11-27 13:10:00
8:30 AM,28.4,28.4,100,30.30,8.0,North,6.9,-,0.00,,Overcast,10,2012-11-27 13:30:00
8:50 AM,30.2,26.6,86,30.30,10.0,North,10.4,-,0.00,,Overcast,10,2012-11-27 13:50:00
9:10 AM,30.2,24.8,80,30.30,10.0,NNE,11.5,-,0.00,,Overcast,20,2012-11-27 14:10:00
9:30 AM,30.2,23.0,75,30.31,10.0,North,9.2,-,0.00,,Overcast,10,2012-11-27 14:30:00
9:50 AM,30.2,23.0,75,30.32,10.0,North,11.5,-,0.00,,Overcast,350,2012-11-27 14:50:00
10:10 AM,30.2,23.0,75,30.32,10.0,North,10.4,-,0.00,,Overcast,10,2012-11-27 15:10:00
10:30 AM,30.2,21.2,69,30.32,10.0,North,10.4,-,0.00,,Overcast,10,2012-11-27 15:30:00
10:50 AM,30.2,21.2,69,30.32,10.0,North,10.4,-,0.00,,Overcast,360,2012-11-27 15:50:00
11:10 AM,32.0,19.4,60,30.33,10.0,NNW,10.4,-,0.00,,Overcast,340,2012-11-27 16:10:00
11:30 AM,32.0,21.2,64,30.32,10.0,North,5.8,-,0.00,,Mostly Cloudy,10,2012-11-27 16:30:00
11:50 AM,32.0,21.2,64,30.32,10.0,Calm,Calm,-,0.00,,Partly Cloudy,0,2012-11-27 16:50:00
12:10 PM,32.0,21.2,64,30.31,10.0,NNW,11.5,-,0.00,,Scattered Clouds,330,2012-11-27 17:10:00
12:30 PM,32.0,21.2,64,30.31,10.0,North,11.5,-,0.00,,Partly Cloudy,350,2012-11-27 17:30:00
12:50 PM,32.0,21.2,64,30.32,10.0,NNW,11.5,-,0.00,,Scattered Clouds,330,2012-11-27 17:50:00
1:10 PM,32.0,19.4,60,30.30,10.0,NNW,6.9,-,0.00,,Partly Cloudy,330,2012-11-27 18:10:00
1:30 PM,32.0,21.2,64,30.29,10.0,NNW,10.4,-,0.00,,Clear,330,2012-11-27 18:30:00
1:50 PM,32.0,21.2,64,30.28,10.0,NNW,5.8,-,0.00,,Clear,330,2012-11-27 18:50:00
2:10 PM,32.0,21.2,64,30.27,10.0,NNW,6.9,-,0.00,,Clear,330,2012-11-27 19:10:00
2:30 PM,32.0,21.2,64,30.26,10.0,West,4.6,-,0.00,,Clear,280,2012-11-27 19:30:00
2:50 PM,32.0,21.2,64,30.26,10.0,NW,5.8,-,0.00,,Clear,320,2012-11-27 19:50:00
3:10 PM,32.0,21.2,64,30.25,10.0,NW,3.5,-,0.00,,Clear,310,2012-11-27 20:10:00
3:30 PM,32.0,21.2,64,30.25,10.0,NNW,5.8,-,0.00,,Clear,330,2012-11-27 20:30:00
3:50 PM,32.0,21.2,64,30.26,10.0,West,4.6,-,0.00,,Clear,280,2012-11-27 20:50:00
4:10 PM,32.0,21.2,64,30.25,10.0,NNW,6.9,-,0.00,,Clear,340,2012-11-27 21:10:00
4:30 PM,32.0,21.2,64,30.26,10.0,Calm,Calm,-,0.00,,Clear,0,2012-11-27 21:30:00
4:50 PM,30.2,21.2,69,30.25,10.0,Calm,Calm,-,0.00,,Clear,0,2012-11-27 21:50:00
5:10 PM,30.2,21.2,69,30.26,10.0,Calm,Calm,-,0.00,,Clear,0,2012-11-27 22:10:00
5:30 PM,28.4,21.2,74,30.26,10.0,Calm,Calm,-,0.00,,Clear,0,2012-11-27 22:30:00
5:50 PM,28.4,21.2,74,30.26,10.0,Calm,Calm,-,0.00,,Clear,0,2012-11-27 22:50:00
6:10 PM,28.4,21.2,74,30.26,10.0,Calm,Calm,-,0.00,,Clear,0,2012-11-27 23:10:00
7:10 PM,28.4,21.2,74,30.27,10.0,Calm,Calm,-,0.00,,Clear,0,2012-11-28 00:10:00
7:30 PM,28.4,21.2,74,30.28,10.0,Calm,Calm,-,0.00,,Clear,0,2012-11-28 00:30:00
7:50 PM,28.4,21.2,74,30.28,10.0,Calm,Calm,-,0.00,,Clear,0,2012-11-28 00:50:00
8:10 PM,28.4,21.2,74,30.28,10.0,Calm,Calm,-,0.00,,Clear,0,2012-11-28 01:10:00
8:30 PM,26.6,21.2,80,30.28,10.0,Calm,Calm,-,0.00,,Clear,0,2012-11-28 01:30:00
8:50 PM,26.6,21.2,80,30.27,10.0,Calm,Calm,-,0.00,,Clear,0,2012-11-28 01:50:00
9:10 PM,26.6,19.4,74,30.26,10.0,SE,3.5,-,0.00,,Clear,140,2012-11-28 02:10:00
9:30 PM,26.6,19.4,74,30.26,10.0,Calm,Calm,-,0.00,,Clear,0,2012-11-28 02:30:00
9:50 PM,26.6,19.4,74,30.27,10.0,Calm,Calm,-,0.00,,Clear,0,2012-11-28 02:50:00
10:10 PM,26.6,21.2,80,30.26,10.0,Calm,Calm,-,0.00,,Clear,0,2012-11-28 03:10:00
10:30 PM,26.6,21.2,80,30.26,10.0,Calm,Calm,-,0.00,,Clear,0,2012-11-28 03:30:00
10:50 PM,23.0,19.4,86,30.27,10.0,Calm,Calm,-,0.00,,Clear,0,2012-11-28 03:50:00
11:10 PM,23.0,19.4,86,30.26,10.0,Calm,Calm,-,0.00,,Clear,0,2012-11-28 04:10:00
11:50 PM,24.8,21.2,86,30.25,10.0,SSE,3.5,-,0.00,,Clear,160,2012-11-28 04:50:00